Location: Rochester
(43.1610°N, 77.6109°W)
Time: 11:14:26
(UTC-04:00)

Tiangong - Visible Passes

Search period start: 25 September 2022 00:00
Search period end: 05 October 2022 00:00
Orbit: 377 x 383 km, 41.5° (Epoch: 24 September)

Date Brightness Start Highest point End Pass type
(mag) Time Alt. Az. Time Alt. Az. Time Alt. Az.
25 Sep 0.6 04:38:32 18° E 04:38:32 18° E 04:39:27 10° E visible
25 Sep -1.5 06:10:40 16° W 06:12:55 42° SSW 06:15:55 10° ESE visible
26 Sep -1.2 05:12:32 41° SE 05:12:32 41° SE 05:14:52 10° ESE visible
27 Sep -1.2 05:46:36 29° SW 05:47:08 31° SSW 05:49:57 10° SE visible
28 Sep 0.8 04:48:37 13° ESE 04:48:37 13° ESE 04:49:01 10° ESE visible
28 Sep 0.0 06:20:45 11° WSW 06:22:17 14° SSW 06:23:58 10° S visible
29 Sep 0.2 05:22:51 15° SSE 05:22:51 15° SSE 05:23:44 10° SSE visible
